Time,TemperatureF,DewpointF,PressureIn,WindDirection,WindDirectionDegrees,WindSpeedMPH,WindSpeedGustMPH,Humidity,HourlyPrecipIn,Conditions,Clouds,dailyrainin,SoftwareType,DateUTC
2013-01-05 00:14:00,28.7,24.0,30.42,NNE,13,4.0,6.0,81,0.00,,,0.00,weatherlink.com 1.10,2013-01-05 07:14:00,
2013-01-05 00:29:00,28.4,23.0,30.42,North,354,4.0,5.0,81,0.00,,,0.00,weatherlink.com 1.10,2013-01-05 07:29:00,
2013-01-05 00:44:00,28.4,23.0,30.42,North,351,4.0,5.0,81,0.00,,,0.00,weatherlink.com 1.10,2013-01-05 07:44:00,
2013-01-05 00:59:00,28.0,23.0,30.42,NNE,31,1.0,4.0,82,0.00,,,0.00,weatherlink.com 1.10,2013-01-05 07:59:00,
2013-01-05 01:14:00,27.6,23.0,30.42,North,5,1.0,4.0,83,0.00,,,0.00,weatherlink.com 1.10,2013-01-05 08:14:00,
2013-01-05 01:29:00,27.7,23.0,30.43,NNE,16,3.0,4.0,83,0.00,,,0.00,weatherlink.com 1.10,2013-01-05 08:29:00,
2013-01-05 01:44:00,27.6,23.0,30.43,North,5,2.0,3.0,83,0.00,,,0.00,weatherlink.com 1.10,2013-01-05 08:44:00,
2013-01-05 01:59:00,27.5,23.0,30.43,North,356,1.0,3.0,84,0.00,,,0.00,weatherlink.com 1.10,2013-01-05 08:59:00,
2013-01-05 02:14:00,27.2,23.0,30.43,North,3,0.0,2.0,83,0.00,,,0.00,weatherlink.com 1.10,2013-01-05 09:14:00,
2013-01-05 02:29:00,27.1,23.0,30.43,North,4,0.0,2.0,84,0.00,,,0.00,weatherlink.com 1.10,2013-01-05 09:29:00,
2013-01-05 02:44:00,26.8,22.0,30.43,North,4,0.0,1.0,83,0.00,,,0.00,weatherlink.com 1.10,2013-01-05 09:44:00,
2013-01-05 02:59:00,26.3,22.0,30.44,North,3,0.0,0.0,84,0.00,,,0.00,weatherlink.com 1.10,2013-01-05 09:59:00,
2013-01-05 03:14:00,25.4,22.0,30.44,WSW,243,0.0,0.0,85,0.00,,,0.00,weatherlink.com 1.10,2013-01-05 10:14:00,
2013-01-05 03:29:00,24.6,21.0,30.44,WSW,243,0.0,0.0,87,0.00,,,0.00,weatherlink.com 1.10,2013-01-05 10:29:00,
2013-01-05 03:44:00,25.3,23.0,30.44,WSW,243,0.0,0.0,89,0.00,,,0.00,weatherlink.com 1.10,2013-01-05 10:44:00,
2013-01-05 04:00:00,25.8,23.0,30.44,ENE,74,0.0,0.0,88,0.00,,,0.00,weatherlink.com 1.10,2013-01-05 11:00:00,
2013-01-05 04:15:00,26.3,23.0,30.44,ENE,74,0.0,0.0,88,0.00,,,0.00,weatherlink.com 1.10,2013-01-05 11:15:00,
2013-01-05 04:30:00,26.5,23.0,30.44,ENE,74,0.0,0.0,88,0.00,,,0.00,weatherlink.com 1.10,2013-01-05 11:30:00,
2013-01-05 04:45:00,26.3,23.0,30.44,ENE,74,0.0,0.0,88,0.00,,,0.00,weatherlink.com 1.10,2013-01-05 11:45:00,
2013-01-05 05:00:00,26.4,24.0,30.44,ENE,74,0.0,0.0,89,0.00,,,0.00,weatherlink.com 1.10,2013-01-05 12:00:00,
2013-01-05 05:15:00,25.6,23.0,30.45,ENE,70,0.0,0.0,88,0.00,,,0.00,weatherlink.com 1.10,2013-01-05 12:15:00,
2013-01-05 05:30:00,25.3,22.0,30.45,NE,47,0.0,2.0,88,0.00,,,0.00,weatherlink.com 1.10,2013-01-05 12:30:00,
2013-01-05 05:45:00,25.9,23.0,30.45,NE,47,0.0,1.0,89,0.00,,,0.00,weatherlink.com 1.10,2013-01-05 12:45:00,
2013-01-05 06:00:00,25.8,23.0,30.46,NE,46,0.0,2.0,88,0.00,,,0.00,weatherlink.com 1.10,2013-01-05 13:00:00,
2013-01-05 06:15:00,26.3,24.0,30.46,NE,45,0.0,0.0,89,0.00,,,0.00,weatherlink.com 1.10,2013-01-05 13:15:00,
2013-01-05 06:30:00,25.9,23.0,30.47,North,355,1.0,2.0,89,0.00,,,0.00,weatherlink.com 1.10,2013-01-05 13:30:00,
2013-01-05 06:45:00,26.1,24.0,30.48,North,355,0.0,1.0,90,0.00,,,0.00,weatherlink.com 1.10,2013-01-05 13:45:00,
2013-01-05 07:00:00,26.1,24.0,30.48,West,273,0.0,1.0,90,0.00,,,0.00,weatherlink.com 1.10,2013-01-05 14:00:00,
2013-01-05 07:15:00,26.2,24.0,30.49,WSW,250,1.0,3.0,90,0.00,,,0.00,weatherlink.com 1.10,2013-01-05 14:15:00,
2013-01-05 07:30:00,26.3,24.0,30.49,NW,325,0.0,2.0,90,0.00,,,0.00,weatherlink.com 1.10,2013-01-05 14:30:00,
2013-01-05 07:45:00,26.5,24.0,30.50,NNW,347,0.0,0.0,91,0.00,,,0.00,weatherlink.com 1.10,2013-01-05 14:45:00,
2013-01-05 08:00:00,26.5,24.0,30.50,West,262,0.0,1.0,91,0.00,,,0.00,weatherlink.com 1.10,2013-01-05 15:00:00,
2013-01-05 08:15:00,26.6,24.0,30.50,NW,323,2.0,3.0,91,0.00,,,0.00,weatherlink.com 1.10,2013-01-05 15:15:00,
2013-01-05 08:30:00,26.8,25.0,30.50,West,276,0.0,1.0,91,0.00,,,0.00,weatherlink.com 1.10,2013-01-05 15:30:00,
2013-01-05 08:45:00,27.1,25.0,30.51,NW,319,0.0,1.0,91,0.00,,,0.00,weatherlink.com 1.10,2013-01-05 15:45:00,
2013-01-05 09:03:00,27.0,25.0,30.51,West,277,1.0,4.0,91,0.00,,,0.00,weatherlink.com 1.10,2013-01-05 16:03:00,
2013-01-05 09:15:00,27.0,25.0,30.51,WNW,294,1.0,3.0,91,0.00,,,0.00,weatherlink.com 1.10,2013-01-05 16:15:00,
2013-01-05 09:30:00,26.9,25.0,30.52,West,277,1.0,5.0,91,0.00,,,0.00,weatherlink.com 1.10,2013-01-05 16:30:00,
2013-01-05 09:45:00,27.1,25.0,30.52,WNW,296,3.0,4.0,91,0.00,,,0.00,weatherlink.com 1.10,2013-01-05 16:45:00,
2013-01-05 10:00:00,27.0,25.0,30.52,WNW,287,1.0,5.0,91,0.00,,,0.00,weatherlink.com 1.10,2013-01-05 17:00:00,
2013-01-05 10:15:00,27.0,25.0,30.52,WNW,289,3.0,5.0,91,0.00,,,0.00,weatherlink.com 1.10,2013-01-05 17:15:00,
2013-01-05 10:30:00,27.0,25.0,30.52,WNW,289,3.0,5.0,91,0.00,,,0.00,weatherlink.com 1.10,2013-01-05 17:30:00,
2013-01-05 10:45:00,26.9,25.0,30.52,WNW,303,2.0,6.0,91,0.00,,,0.00,weatherlink.com 1.10,2013-01-05 17:45:00,
2013-01-05 11:00:00,26.9,25.0,30.51,NW,319,0.0,6.0,91,0.00,,,0.00,weatherlink.com 1.10,2013-01-05 18:00:00,
2013-01-05 11:15:00,27.5,25.0,30.50,NNW,343,1.0,4.0,91,0.00,,,0.00,weatherlink.com 1.10,2013-01-05 18:15:00,
2013-01-05 11:30:00,27.8,26.0,30.50,NNW,347,5.0,6.0,91,0.00,,,0.00,weatherlink.com 1.10,2013-01-05 18:30:00,
2013-01-05 11:45:00,27.6,25.0,30.49,WNW,303,3.0,7.0,90,0.00,,,0.00,weatherlink.com 1.10,2013-01-05 18:45:00,
2013-01-05 12:00:00,27.4,25.0,30.48,WNW,290,2.0,7.0,90,0.00,,,0.00,weatherlink.com 1.10,2013-01-05 19:00:00,
2013-01-05 12:15:00,27.4,25.0,30.47,NNW,335,2.0,5.0,91,0.00,,,0.00,weatherlink.com 1.10,2013-01-05 19:15:00,
2013-01-05 12:30:00,27.1,25.0,30.46,WNW,288,3.0,6.0,91,0.00,,,0.00,weatherlink.com 1.10,2013-01-05 19:30:00,
2013-01-05 12:45:00,27.5,25.0,30.46,WNW,288,3.0,8.0,91,0.00,,,0.00,weatherlink.com 1.10,2013-01-05 19:45:00,
2013-01-05 13:00:00,27.5,25.0,30.45,NNW,345,4.0,7.0,91,0.00,,,0.00,weatherlink.com 1.10,2013-01-05 20:00:00,
2013-01-05 13:15:00,27.3,25.0,30.45,North,1,5.0,9.0,91,0.00,,,0.00,weatherlink.com 1.10,2013-01-05 20:15:00,
2013-01-05 13:30:00,27.7,25.0,30.44,NNW,333,3.0,7.0,90,0.00,,,0.00,weatherlink.com 1.10,2013-01-05 20:30:00,
2013-01-05 13:45:00,28.0,26.0,30.44,WNW,297,5.0,6.0,90,0.00,,,0.00,weatherlink.com 1.10,2013-01-05 20:45:00,
2013-01-05 14:00:00,28.4,26.0,30.44,NW,311,4.0,8.0,90,0.00,,,0.00,weatherlink.com 1.10,2013-01-05 21:00:00,
2013-01-05 14:15:00,28.9,26.0,30.43,NW,309,6.0,6.0,89,0.00,,,0.00,weatherlink.com 1.10,2013-01-05 21:15:00,
2013-01-05 14:45:00,29.3,26.0,30.43,NW,305,0.0,7.0,87,0.00,,,0.00,weatherlink.com 1.10,2013-01-05 21:45:00,
2013-01-05 15:00:00,29.6,26.0,30.43,NW,308,3.0,6.0,87,0.00,,,0.00,weatherlink.com 1.10,2013-01-05 22:00:00,
2013-01-05 15:15:00,30.1,27.0,30.43,WNW,302,4.0,8.0,87,0.00,,,0.00,weatherlink.com 1.10,2013-01-05 22:15:00,
2013-01-05 15:31:00,30.0,26.0,30.44,NW,307,2.0,7.0,86,0.00,,,0.00,weatherlink.com 1.10,2013-01-05 22:31:00,
2013-01-05 15:46:00,29.8,26.0,30.44,NW,304,1.0,7.0,86,0.00,,,0.00,weatherlink.com 1.10,2013-01-05 22:46:00,
2013-01-05 16:01:00,30.3,27.0,30.44,WNW,303,5.0,6.0,86,0.00,,,0.00,weatherlink.com 1.10,2013-01-05 23:01:00,
2013-01-05 16:16:00,30.9,27.0,30.43,WNW,293,2.0,5.0,85,0.00,,,0.00,weatherlink.com 1.10,2013-01-05 23:16:00,
2013-01-05 16:31:00,31.1,27.0,30.43,West,262,0.0,4.0,83,0.00,,,0.00,weatherlink.com 1.10,2013-01-05 23:31:00,
2013-01-05 16:46:00,30.7,26.0,30.44,West,280,0.0,4.0,82,0.00,,,0.00,weatherlink.com 1.10,2013-01-05 23:46:00,
2013-01-05 17:01:00,30.2,25.0,30.44,WNW,287,2.0,2.0,82,0.00,,,0.00,weatherlink.com 1.10,2013-01-06 00:01:00,
2013-01-05 17:16:00,28.5,24.0,30.44,NNE,19,0.0,0.0,84,0.00,,,0.00,weatherlink.com 1.10,2013-01-06 00:16:00,
2013-01-05 17:31:00,27.3,24.0,30.44,WNW,296,0.0,2.0,87,0.00,,,0.00,weatherlink.com 1.10,2013-01-06 00:31:00,
2013-01-05 17:46:00,26.7,24.0,30.43,NW,307,0.0,0.0,88,0.00,,,0.00,weatherlink.com 1.10,2013-01-06 00:46:00,
2013-01-05 18:01:00,26.2,23.0,30.45,North,351,0.0,2.0,89,0.00,,,0.00,weatherlink.com 1.10,2013-01-06 01:01:00,
2013-01-05 18:16:00,25.9,23.0,30.45,West,276,0.0,4.0,90,0.00,,,0.00,weatherlink.com 1.10,2013-01-06 01:16:00,
2013-01-05 18:32:00,25.5,23.0,30.45,NNW,343,0.0,3.0,90,0.00,,,0.00,weatherlink.com 1.10,2013-01-06 01:32:00,
2013-01-05 18:46:00,25.4,23.0,30.45,NW,309,0.0,2.0,91,0.00,,,0.00,weatherlink.com 1.10,2013-01-06 01:46:00,
2013-01-05 19:01:00,25.3,23.0,30.45,NE,49,0.0,3.0,91,0.00,,,0.00,weatherlink.com 1.10,2013-01-06 02:01:00,
2013-01-05 19:16:00,25.5,23.0,30.46,NNE,20,0.0,1.0,91,0.00,,,0.00,weatherlink.com 1.10,2013-01-06 02:16:00,
2013-01-05 19:31:00,28.0,24.0,30.46,North,350,3.0,5.0,84,0.00,,,0.00,weatherlink.com 1.10,2013-01-06 02:31:00,
2013-01-05 19:46:00,28.4,22.0,30.46,NNW,336,3.0,6.0,78,0.00,,,0.00,weatherlink.com 1.10,2013-01-06 02:46:00,
2013-01-05 20:01:00,28.2,23.0,30.46,NNE,32,1.0,5.0,80,0.00,,,0.00,weatherlink.com 1.10,2013-01-06 03:01:00,
2013-01-05 20:16:00,27.8,23.0,30.47,ENE,61,0.0,6.0,81,0.00,,,0.00,weatherlink.com 1.10,2013-01-06 03:16:00,
2013-01-05 20:31:00,27.6,23.0,30.47,North,360,6.0,6.0,83,0.00,,,0.00,weatherlink.com 1.10,2013-01-06 03:31:00,
2013-01-05 20:46:00,27.4,23.0,30.48,North,356,1.0,4.0,83,0.00,,,0.00,weatherlink.com 1.10,2013-01-06 03:46:00,
2013-01-05 21:01:00,27.1,23.0,30.48,North,356,2.0,4.0,84,0.00,,,0.00,weatherlink.com 1.10,2013-01-06 04:01:00,
2013-01-05 21:16:00,26.7,23.0,30.48,NE,47,0.0,2.0,85,0.00,,,0.00,weatherlink.com 1.10,2013-01-06 04:16:00,
2013-01-05 21:31:00,26.5,23.0,30.49,ENE,58,0.0,2.0,85,0.00,,,0.00,weatherlink.com 1.10,2013-01-06 04:31:00,
2013-01-05 21:46:00,27.0,23.0,30.49,North,4,4.0,5.0,83,0.00,,,0.00,weatherlink.com 1.10,2013-01-06 04:46:00,
2013-01-05 22:01:00,27.8,23.0,30.49,NNE,12,1.0,5.0,83,0.00,,,0.00,weatherlink.com 1.10,2013-01-06 05:01:00,
2013-01-05 22:16:00,28.2,23.0,30.50,NNE,25,0.0,5.0,82,0.00,,,0.00,weatherlink.com 1.10,2013-01-06 05:16:00,
2013-01-05 22:31:00,29.0,23.0,30.50,NNW,346,3.0,3.0,77,0.00,,,0.00,weatherlink.com 1.10,2013-01-06 05:31:00,
2013-01-05 22:46:00,29.3,24.0,30.50,NNE,15,0.0,4.0,81,0.00,,,0.00,weatherlink.com 1.10,2013-01-06 05:46:00,
2013-01-05 23:01:00,29.7,23.0,30.50,NNE,14,0.0,0.0,75,0.00,,,0.00,weatherlink.com 1.10,2013-01-06 06:01:00,
2013-01-05 23:16:00,29.4,23.0,30.50,East,100,0.0,2.0,76,0.00,,,0.00,weatherlink.com 1.10,2013-01-06 06:16:00,
2013-01-05 23:31:00,29.4,23.0,30.49,East,85,1.0,1.0,76,0.00,,,0.00,weatherlink.com 1.10,2013-01-06 06:31:00,
2013-01-05 23:46:00,30.8,24.0,30.49,NNE,32,1.0,1.0,77,0.00,,,0.00,weatherlink.com 1.10,2013-01-06 06:46:00,